Home > Products > Valid Products > MTR

000
SAGM31 PGUM 240354
MTRGUM
METAR PGUM 240354Z 09012KT 10SM SCT025 31/24 A2984 RMK AO2 SLP095
T03110244




000
SAGM31 PGUM 240354
MTRGUM
METAR PGUM 240354Z 09012KT 10SM SCT025 31/24 A2984 RMK AO2 SLP095
T03110244





000
SAGM31 PGUM 240254
MTRGUM
METAR PGUM 240254Z 11012G18KT 10SM SCT025 31/24 A2986 RMK AO2 SLP104
T03110244 58019




000
SAGM31 PGUM 240254
MTRGUM
METAR PGUM 240254Z 11012G18KT 10SM SCT025 31/24 A2986 RMK AO2 SLP104
T03110244 58019





000
SAGM31 PGUM 240155
MTRGUM
METAR PGUM 240154Z 10012KT 10SM SCT022 31/24 A2989 RMK AO2 SLP113
T03110244




000
SAGM31 PGUM 240155
MTRGUM
METAR PGUM 240154Z 10012KT 10SM SCT022 31/24 A2989 RMK AO2 SLP113
T03110244





000
SAGM31 PGUM 240155
MTRGUM
METAR PGUM 240154Z 10012KT 10SM SCT022 31/24 A2989 RMK AO2 SLP113
T03110244




000
SAGM31 PGUM 240155
MTRGUM
METAR PGUM 240154Z 10012KT 10SM SCT022 31/24 A2989 RMK AO2 SLP113
T03110244





000
SAGM31 PGUM 240055
MTRGUM
METAR PGUM 240054Z 08014G19KT 10SM FEW020 31/24 A2991 RMK AO2 SLP119
T03060244




000
SAGM31 PGUM 240055
MTRGUM
METAR PGUM 240054Z 08014G19KT 10SM FEW020 31/24 A2991 RMK AO2 SLP119
T03060244





000
SAGM31 PGUM 232355
MTRGUM
METAR PGUM 232354Z 10012KT 10SM FEW018 SCT027 SCT075 30/24 A2992 RMK
AO2 RAB25E35 SLP124 P0000 60010 T03000244 10300 20267 50009





000
SAGM31 PGUM 232355
MTRGUM
METAR PGUM 232354Z 10012KT 10SM FEW018 SCT027 SCT075 30/24 A2992 RMK
AO2 RAB25E35 SLP124 P0000 60010 T03000244 10300 20267 50009




000
SAGM31 PGUM 232255
MTRGUM
METAR PGUM 232254Z 09011KT 10SM FEW020 29/26 A2993 RMK AO2 RAB10E20
SLP126 P0000 T02890256





000
SAGM31 PGUM 232255
MTRGUM
METAR PGUM 232254Z 09011KT 10SM FEW020 29/26 A2993 RMK AO2 RAB10E20
SLP126 P0000 T02890256




000
SAGM31 PGUM 232154
MTRGUM
METAR PGUM 232154Z 08006KT 10SM FEW020 SCT045 27/25 A2992 RMK AO2
RAE38 SLP122 P0007 T02720250




000
SAGM31 PGUM 232154
MTRGUM
METAR PGUM 232154Z 08006KT 10SM FEW020 SCT045 27/25 A2992 RMK AO2
RAE38 SLP122 P0007 T02720250





000
SAGM31 PGUM 232154
MTRGUM
METAR PGUM 232154Z 08006KT 10SM FEW020 SCT045 27/25 A2992 RMK AO2
RAE38 SLP122 P0007 T02720250




000
SAGM31 PGUM 232154
MTRGUM
METAR PGUM 232154Z 08006KT 10SM FEW020 SCT045 27/25 A2992 RMK AO2
RAE38 SLP122 P0007 T02720250





000
SAGM31 PGUM 232120
MTRGUM
SPECI PGUM 232120Z 10005KT 10SM FEW016 BKN032 27/25 A2990 RMK AO2
RAE18 P0006





000
SAGM31 PGUM 232120
MTRGUM
SPECI PGUM 232120Z 10005KT 10SM FEW016 BKN032 27/25 A2990 RMK AO2
RAE18 P0006




000
SAGM31 PGUM 232120
MTRGUM
SPECI PGUM 232120Z 10005KT 10SM FEW016 BKN032 27/25 A2990 RMK AO2
RAE18 P0006




000
SAGM31 PGUM 232120
MTRGUM
SPECI PGUM 232120Z 10005KT 10SM FEW016 BKN032 27/25 A2990 RMK AO2
RAE18 P0006





000
SAGM31 PGUM 232112
MTRGUM
SPECI PGUM 232112Z 12010KT 2 1/2SM -RA BR SCT016 BKN032 BKN044 27/25
A2991 RMK AO2 P0006





000
SAGM31 PGUM 232054
MTRGUM
METAR PGUM 232054Z 08009KT 10SM -RA FEW018 BKN043 BKN055 27/26 A2989
RMK AO2 RAB26 SLP114 P0001 60001 T02720256 53014





000
SAGM31 PGUM 232054
MTRGUM
METAR PGUM 232054Z 08009KT 10SM -RA FEW018 BKN043 BKN055 27/26 A2989
RMK AO2 RAB26 SLP114 P0001 60001 T02720256 53014




000
SAGM31 PGUM 231954
MTRGUM
METAR PGUM 231954Z 08006KT 10SM CLR 27/25 A2988 RMK AO2 SLP109
T02670250




000
SAGM31 PGUM 231954
MTRGUM
METAR PGUM 231954Z 08006KT 10SM CLR 27/25 A2988 RMK AO2 SLP109
T02670250





000
SAGM31 PGUM 231954
MTRGUM
METAR PGUM 231954Z 08006KT 10SM CLR 27/25 A2988 RMK AO2 SLP109
T02670250




000
SAGM31 PGUM 231954
MTRGUM
METAR PGUM 231954Z 08006KT 10SM CLR 27/25 A2988 RMK AO2 SLP109
T02670250





000
SAGM31 PGUM 231855
MTRGUM
METAR PGUM 231854Z 08007KT 10SM FEW016 27/25 A2986 RMK AO2 SLP102
T02720250




000
SAGM31 PGUM 231855
MTRGUM
METAR PGUM 231854Z 08007KT 10SM FEW016 27/25 A2986 RMK AO2 SLP102
T02720250





000
SAGM31 PGUM 231755
MTRGUM
METAR PGUM 231754Z 07008KT 10SM SCT019 27/25 A2985 RMK AO2 RAB36E46
SLP101 P0000 60000 T02720250 10278 20272 56013




000
SAGM31 PGUM 231755
MTRGUM
METAR PGUM 231754Z 07008KT 10SM SCT019 27/25 A2985 RMK AO2 RAB36E46
SLP101 P0000 60000 T02720250 10278 20272 56013





000
SAGM31 PGUM 231655
MTRGUM
METAR PGUM 231654Z 07008KT 10SM CLR 27/25 A2986 RMK AO2 SLP102
T02720250




000
SAGM31 PGUM 231655
MTRGUM
METAR PGUM 231654Z 07008KT 10SM CLR 27/25 A2986 RMK AO2 SLP102
T02720250





000
SAGM31 PGUM 231554
MTRGUM
METAR PGUM 231554Z 07009KT 10SM CLR 27/25 A2987 RMK AO2 SLP107
T02720250




000
SAGM31 PGUM 231554
MTRGUM
METAR PGUM 231554Z 07009KT 10SM CLR 27/25 A2987 RMK AO2 SLP107
T02720250





000
SAGM31 PGUM 231554
MTRGUM
METAR PGUM 231554Z 07009KT 10SM CLR 27/25 A2987 RMK AO2 SLP107
T02720250




000
SAGM31 PGUM 231554
MTRGUM
METAR PGUM 231554Z 07009KT 10SM CLR 27/25 A2987 RMK AO2 SLP107
T02720250





000
SAGM31 PGUM 231455
MTRGUM
METAR PGUM 231454Z 07007KT 10SM FEW025 27/25 A2989 RMK AO2 SLP114
T02720250 58007




000
SAGM31 PGUM 231455
MTRGUM
METAR PGUM 231454Z 07007KT 10SM FEW025 27/25 A2989 RMK AO2 SLP114
T02720250 58007





000
SAGM31 PGUM 231354
MTRGUM
METAR PGUM 231354Z 06009KT 10SM FEW025 27/25 A2990 RMK AO2 SLP118
T02720250 403110256




000
SAGM31 PGUM 231354
MTRGUM
METAR PGUM 231354Z 06009KT 10SM FEW025 27/25 A2990 RMK AO2 SLP118
T02720250 403110256





000
SAGM31 PGUM 231255
MTRGUM
METAR PGUM 231254Z 07009KT 10SM FEW020 SCT042 28/25 A2991 RMK AO2
SLP120 T02780250




000
SAGM31 PGUM 231255
MTRGUM
METAR PGUM 231254Z 07009KT 10SM FEW020 SCT042 28/25 A2991 RMK AO2
SLP120 T02780250





000
SAGM31 PGUM 231155
MTRGUM
METAR PGUM 231154Z 07007KT 10SM FEW020 27/25 A2991 RMK AO2 SLP121
60000 70073 T02720250 10272 20261 51009





000
SAGM31 PGUM 231155
MTRGUM
METAR PGUM 231154Z 07007KT 10SM FEW020 27/25 A2991 RMK AO2 SLP121
60000 70073 T02720250 10272 20261 51009




000
SAGM31 PGUM 231055
MTRGUM
METAR PGUM 231054Z 10004KT 10SM FEW020 27/25 A2990 RMK AO2 SLP118
T02670250




000
SAGM31 PGUM 231055
MTRGUM
METAR PGUM 231054Z 10004KT 10SM FEW020 27/25 A2990 RMK AO2 SLP118
T02670250





000
SAGM31 PGUM 230954
MTRGUM
METAR PGUM 230954Z 07005KT 10SM FEW018 27/24 A2990 RMK AO2 SLP116
T02720244




000
SAGM31 PGUM 230954
MTRGUM
METAR PGUM 230954Z 07005KT 10SM FEW018 27/24 A2990 RMK AO2 SLP116
T02720244





000
SAGM31 PGUM 230954
MTRGUM
METAR PGUM 230954Z 07005KT 10SM FEW018 27/24 A2990 RMK AO2 SLP116
T02720244




000
SAGM31 PGUM 230954
MTRGUM
METAR PGUM 230954Z 07005KT 10SM FEW018 27/24 A2990 RMK AO2 SLP116
T02720244





000
SAGM31 PGUM 230854
MTRGUM
METAR PGUM 230854Z 10004KT 10SM FEW018 SCT055 27/24 A2989 RMK AO2
SLP112 60000 T02670244 51014





000
SAGM31 PGUM 230755
MTRGUM
METAR PGUM 230754Z 12003KT 10SM FEW018 SCT040 26/24 A2987 RMK AO2
SLP106 CB DSNT N MOV W T02610239





000
SAGM31 PGUM 230755
MTRGUM
METAR PGUM 230754Z 12003KT 10SM FEW018 SCT040 26/24 A2987 RMK AO2
SLP106 CB DSNT N MOV W T02610239




000
SAGM31 PGUM 230655
MTRGUM
METAR PGUM 230654Z 14006KT 10SM FEW018 SCT040 27/24 A2986 RMK AO2
RAE03 SLP104 P0000 T02670239




000
SAGM31 PGUM 230655
MTRGUM
METAR PGUM 230654Z 14006KT 10SM FEW018 SCT040 27/24 A2986 RMK AO2
RAE03 SLP104 P0000 T02670239





000
SAGM31 PGUM 230555
MTRGUM
METAR PGUM 230554Z 09004KT 8SM -RA SCT011 27/26 A2984 RMK AO2
RAE33B52 SLP098 60025 P0007 T02720256 10311 20256 58005




000
SAGM31 PGUM 230520
MTRGUM
SPECI PGUM 230519Z 00000KT 4SM RA BR FEW024 BKN031 OVC039 26/25
A2986 RMK AO2 P0001




000
SAGM31 PGUM 230520
MTRGUM
SPECI PGUM 230519Z 00000KT 4SM RA BR FEW024 BKN031 OVC039 26/25
A2986 RMK AO2 P0001





000
SAGM31 PGUM 230459
MTRGUM
SPECI PGUM 230458Z 15009KT 3SM -RA BR FEW008 SCT019 BKN025 26/24
A2986 RMK AO2 P0000





000
SAGM31 PGUM 230459
MTRGUM
SPECI PGUM 230458Z 15009KT 3SM -RA BR FEW008 SCT019 BKN025 26/24
A2986 RMK AO2 P0000




000
SAGM31 PGUM 230459
MTRGUM
SPECI PGUM 230458Z 15009KT 3SM -RA BR FEW008 SCT019 BKN025 26/24
A2986 RMK AO2 P0000





000
SAGM31 PGUM 230459
MTRGUM
SPECI PGUM 230458Z 15009KT 3SM -RA BR FEW008 SCT019 BKN025 26/24
A2986 RMK AO2 P0000




000
SAGM31 PGUM 230454
MTRGUM
METAR PGUM 230454Z 16010KT 2 1/2SM RA BR FEW008 SCT019 BKN034 26/24
A2986 RMK AO2 RAE12B48 SLP104 P0002 T02610244




000
SAGM31 PGUM 230454
MTRGUM
METAR PGUM 230454Z 16010KT 2 1/2SM RA BR FEW008 SCT019 BKN034 26/24
A2986 RMK AO2 RAE12B48 SLP104 P0002 T02610244





000
SAGM31 PGUM 230401
MTRGUM
SPECI PGUM 230401Z 09008KT 10SM -RA SCT021 BKN034 OVC110 28/26 A2985
RMK AO2 P0000




000
SAGM31 PGUM 230401
MTRGUM
SPECI PGUM 230401Z 09008KT 10SM -RA SCT021 BKN034 OVC110 28/26 A2985
RMK AO2 P0000





000
SAGM31 PGUM 230401
MTRGUM
SPECI PGUM 230401Z 09008KT 10SM -RA SCT021 BKN034 OVC110 28/26 A2985
RMK AO2 P0000




000
SAGM31 PGUM 230354
MTRGUM
METAR PGUM 230354Z 07007KT 2SM -RA BR BKN026 BKN038 OVC055 27/24
A2986 RMK AO2 RAB26 SLP102 P0015 T02670244




000
SAGM31 PGUM 230354
MTRGUM
METAR PGUM 230354Z 07007KT 2SM -RA BR BKN026 BKN038 OVC055 27/24
A2986 RMK AO2 RAB26 SLP102 P0015 T02670244





000
SAGM31 PGUM 230351
MTRGUM
SPECI PGUM 230351Z 06007G17KT 1 1/4SM RA BR BKN026 BKN038 OVC060
26/24 A2986 RMK AO2 RAB26 P0015




000
SAGM31 PGUM 230351
MTRGUM
SPECI PGUM 230351Z 06007G17KT 1 1/4SM RA BR BKN026 BKN038 OVC060
26/24 A2986 RMK AO2 RAB26 P0015





000
SAGM31 PGUM 230343
MTRGUM
SPECI PGUM 230343Z 11011G19KT 1 3/4SM +RA BR FEW019 BKN033 OVC060
27/25 A2987 RMK AO2 VIS 3/4V5 RAB26 P0000




000
SAGM31 PGUM 230343
MTRGUM
SPECI PGUM 230343Z 11011G19KT 1 3/4SM +RA BR FEW019 BKN033 OVC060
27/25 A2987 RMK AO2 VIS 3/4V5 RAB26 P0000





000
SAGM31 PGUM 230343
MTRGUM
SPECI PGUM 230343Z 11011G19KT 1 3/4SM +RA BR FEW019 BKN033 OVC060
27/25 A2987 RMK AO2 VIS 3/4V5 RAB26 P0000




000
SAGM31 PGUM 230343
MTRGUM
SPECI PGUM 230343Z 11011G19KT 1 3/4SM +RA BR FEW019 BKN033 OVC060
27/25 A2987 RMK AO2 VIS 3/4V5 RAB26 P0000





000
SAGM31 PGUM 230334
MTRGUM
SPECI PGUM 230334Z 11006KT 10SM -RA SCT022 BKN038 OVC070 28/25 A2986
RMK AO2 RAB26 P0000





000
SAGM31 PGUM 230334
MTRGUM
SPECI PGUM 230334Z 11006KT 10SM -RA SCT022 BKN038 OVC070 28/25 A2986
RMK AO2 RAB26 P0000




000
SAGM31 PGUM 230334
MTRGUM
SPECI PGUM 230334Z 11006KT 10SM -RA SCT022 BKN038 OVC070 28/25 A2986
RMK AO2 RAB26 P0000




000
SAGM31 PGUM 230334
MTRGUM
SPECI PGUM 230334Z 11006KT 10SM -RA SCT022 BKN038 OVC070 28/25 A2986
RMK AO2 RAB26 P0000





000
SAGM31 PGUM 230325
MTRGUM
SPECI PGUM 230325Z 14008G17KT 10SM SCT019 BKN026 BKN035 28/24 A2986
RMK AO2




000
SAGM31 PGUM 230325
MTRGUM
SPECI PGUM 230325Z 14008G17KT 10SM SCT019 BKN026 BKN035 28/24 A2986
RMK AO2





000
SAGM31 PGUM 230254
MTRGUM
METAR PGUM 230254Z 09012G19KT 10SM FEW019 31/24 A2986 RMK AO2 SLP104
P0001 60001 T03110244 58017





000
SAGM31 PGUM 230254
MTRGUM
METAR PGUM 230254Z 09012G19KT 10SM FEW019 31/24 A2986 RMK AO2 SLP104
P0001 60001 T03110244 58017




000
SAGM31 PGUM 230155
MTRGUM
METAR PGUM 230154Z 10010KT 10SM FEW040 29/26 A2989 RMK AO2 RAB21E41
SLP113 P0000 T02940256




000
SAGM31 PGUM 230155
MTRGUM
METAR PGUM 230154Z 10010KT 10SM FEW040 29/26 A2989 RMK AO2 RAB21E41
SLP113 P0000 T02940256





000
SAGM31 PGUM 230055
MTRGUM
METAR PGUM 230054Z 08015G20KT 10SM SCT021 31/25 A2991 RMK AO2 SLP119
T03110250





000
SAGM31 PGUM 230055
MTRGUM
METAR PGUM 230054Z 08015G20KT 10SM SCT021 31/25 A2991 RMK AO2 SLP119
T03110250




000
SAGM31 PGUM 222355
MTRGUM
METAR PGUM 222354Z 09013G18KT 10SM SCT021 31/26 A2991 RMK AO2 SLP121
T03060256 10306 20261 50005




000
SAGM31 PGUM 222355
MTRGUM
METAR PGUM 222354Z 09013G18KT 10SM SCT021 31/26 A2991 RMK AO2 SLP121
T03060256 10306 20261 50005





000
SAGM31 PGUM 222255
MTRGUM
METAR PGUM 222254Z 08011KT 10SM SCT022 SCT027 BKN034 29/25 A2992 RMK
AO2 SLP122 P0001 T02940250




000
SAGM31 PGUM 222255
MTRGUM
METAR PGUM 222254Z 08011KT 10SM SCT022 SCT027 BKN034 29/25 A2992 RMK
AO2 SLP122 P0001 T02940250





000
SAGM31 PGUM 222250
MTRGUM
SPECI PGUM 222249Z 07010G16KT 10SM SCT024 BKN034 29/25 A2991 RMK AO2
P0001




000
SAGM31 PGUM 222250
MTRGUM
SPECI PGUM 222249Z 07010G16KT 10SM SCT024 BKN034 29/25 A2991 RMK AO2
P0001





000
SAGM31 PGUM 222232
MTRGUM
SPECI PGUM 222231Z 07010KT 10SM BKN024 BKN034 28/25 A2991 RMK AO2
P0001





000
SAGM31 PGUM 222154
MTRGUM
METAR PGUM 222154Z 08006KT 10SM SCT020 28/25 A2990 RMK AO2 SLP116
T02830250




000
SAGM31 PGUM 222154
MTRGUM
METAR PGUM 222154Z 08006KT 10SM SCT020 28/25 A2990 RMK AO2 SLP116
T02830250





000
SAGM31 PGUM 222154
MTRGUM
METAR PGUM 222154Z 08006KT 10SM SCT020 28/25 A2990 RMK AO2 SLP116
T02830250





000
SAGM31 PGUM 222154
MTRGUM
METAR PGUM 222154Z 08006KT 10SM SCT020 28/25 A2990 RMK AO2 SLP116
T02830250




000
SAGM31 PGUM 222054
MTRGUM
METAR PGUM 222054Z 08005KT 10SM FEW025 27/25 A2987 RMK AO2 SLP108
T02720250 53008





000
SAGM31 PGUM 222054
MTRGUM
METAR PGUM 222054Z 08005KT 10SM FEW025 27/25 A2987 RMK AO2 SLP108
T02720250 53008




000
SAGM31 PGUM 221954
MTRGUM
METAR PGUM 221954Z 08005KT 10SM SCT019 SCT027 27/25 A2986 RMK AO2
SLP103 T02670250




000
SAGM31 PGUM 221954
MTRGUM
METAR PGUM 221954Z 08005KT 10SM SCT019 SCT027 27/25 A2986 RMK AO2
SLP103 T02670250





000
SAGM31 PGUM 221941
MTRGUM
SPECI PGUM 221941Z 08005KT 10SM SCT021 BKN025 27/25 A2985 RMK AO2




000
SAGM31 PGUM 221941
MTRGUM
SPECI PGUM 221941Z 08005KT 10SM SCT021 BKN025 27/25 A2985 RMK AO2





000
SAGM31 PGUM 221855
MTRGUM
METAR PGUM 221854Z 10004KT 10SM FEW016 27/25 A2985 RMK AO2 SLP099
T02670250




000
SAGM31 PGUM 221855
MTRGUM
METAR PGUM 221854Z 10004KT 10SM FEW016 27/25 A2985 RMK AO2 SLP099
T02670250





000
SAGM31 PGUM 221755
MTRGUM
METAR PGUM 221754Z 09004KT 10SM CLR 26/25 A2985 RMK AO2
TSB02E29RAE17 SLP100 P0035 60050 T02610250 10278 20256 56012




000
SAGM31 PGUM 221755
MTRGUM
METAR PGUM 221754Z 09004KT 10SM CLR 26/25 A2985 RMK AO2
TSB02E29RAE17 SLP100 P0035 60050 T02610250 10278 20256 56012





000
SAGM31 PGUM 221736
MTRGUM
SPECI PGUM 221735Z 09005KT 10SM CLR 27/25 A2986 RMK AO2
TSB02E29RAE17 P0035




000
SAGM31 PGUM 221736
MTRGUM
SPECI PGUM 221735Z 09005KT 10SM CLR 27/25 A2986 RMK AO2
TSB02E29RAE17 P0035





000
SAGM31 PGUM 221721
MTRGUM
SPECI PGUM 221720Z 09004KT 4SM TS BR SCT015 SCT022 26/25 A2985 RMK
AO2 TSB02RAE17 TS E MOV W OCNL LTGICCC E P0035




000
SAGM31 PGUM 221721
MTRGUM
SPECI PGUM 221720Z 09004KT 4SM TS BR SCT015 SCT022 26/25 A2985 RMK
AO2 TSB02RAE17 TS E MOV W OCNL LTGICCC E P0035





000
SAGM31 PGUM 221709
MTRGUM
SPECI PGUM 221708Z 05004G17KT 2SM +TSRA BR BKN015 BKN023 OVC038
26/25 A2986 RMK AO2 TSB02 TS E MOV W OCNL LTGICCC E P0034




000
SAGM31 PGUM 221709
MTRGUM
SPECI PGUM 221708Z 05004G17KT 2SM +TSRA BR BKN015 BKN023 OVC038
26/25 A2986 RMK AO2 TSB02 TS E MOV W OCNL LTGICCC E P0034





000
SAGM31 PGUM 221659
MTRGUM
SPECI PGUM 221658Z 09010G17KT 2SM +RA BR FEW009 SCT017 OVC023 27/25
A2986 RMK AO2 VIS 1 1/2V3 P0002




000
SAGM31 PGUM 221659
MTRGUM
SPECI PGUM 221658Z 09010G17KT 2SM +RA BR FEW009 SCT017 OVC023 27/25
A2986 RMK AO2 VIS 1 1/2V3 P0002





000
SAGM31 PGUM 221655
MTRGUM
METAR PGUM 221654Z 08003KT 1 3/4SM +RA BR FEW018 SCT023 BKN036 27/25
A2986 RMK AO2 VIS 1 1/4V3 RAB43 SLP102 P0015 T02670250




000
SAGM31 PGUM 221655
MTRGUM
METAR PGUM 221654Z 08003KT 1 3/4SM +RA BR FEW018 SCT023 BKN036 27/25
A2986 RMK AO2 VIS 1 1/4V3 RAB43 SLP102 P0015 T02670250





000
SAGM31 PGUM 221651
MTRGUM
SPECI PGUM 221650Z 07005KT 1 3/4SM +RA BR FEW018 SCT023 BKN036 27/25
A2985 RMK AO2 RAB43 P0007




000
SAGM31 PGUM 221651
MTRGUM
SPECI PGUM 221650Z 07005KT 1 3/4SM +RA BR FEW018 SCT023 BKN036 27/25
A2985 RMK AO2 RAB43 P0007





000
SAGM31 PGUM 221554
MTRGUM
METAR PGUM 221554Z 11008KT 10SM FEW019 28/25 A2987 RMK AO2 SLP106
T02780250




000
SAGM31 PGUM 221554
MTRGUM
METAR PGUM 221554Z 11008KT 10SM FEW019 28/25 A2987 RMK AO2 SLP106
T02780250





000
SAGM31 PGUM 221554
MTRGUM
METAR PGUM 221554Z 11008KT 10SM FEW019 28/25 A2987 RMK AO2 SLP106
T02780250





000
SAGM31 PGUM 221455
MTRGUM
METAR PGUM 221454Z 11008KT 10SM FEW020 28/25 A2988 RMK AO2 SLP112
T02780250 57004





000
SAGM31 PGUM 221354
MTRGUM
METAR PGUM 221354Z 11008KT 10SM FEW015 28/26 A2989 RMK AO2 SLP112
T02780256 403220250




000
SAGM31 PGUM 221354
MTRGUM
METAR PGUM 221354Z 11008KT 10SM FEW015 28/26 A2989 RMK AO2 SLP112
T02780256 403220250





000
SAGM31 PGUM 221255
MTRGUM
METAR PGUM 221254Z 12008KT 10SM SCT019 27/25 A2989 RMK AO2 SLP114
T02720250




000
SAGM31 PGUM 221255
MTRGUM
METAR PGUM 221254Z 12008KT 10SM SCT019 27/25 A2989 RMK AO2 SLP114
T02720250





000
SAGM31 PGUM 221155
MTRGUM
METAR PGUM 221154Z 10007KT 10SM FEW018 SCT039 27/24 A2990 RMK AO2
RAB35E52 SLP115 P0002 60010 70072 T02670239 10300 20267 51013




000
SAGM31 PGUM 221155
MTRGUM
METAR PGUM 221154Z 10007KT 10SM FEW018 SCT039 27/24 A2990 RMK AO2
RAB35E52 SLP115 P0002 60010 70072 T02670239 10300 20267 51013





000
SAGM31 PGUM 221055
MTRGUM
METAR PGUM 221054Z 10008KT 10SM FEW017 SCT040 27/26 A2989 RMK AO2
RAB06E39 SLP112 P0001 T02720256




000
SAGM31 PGUM 221055
MTRGUM
METAR PGUM 221054Z 10008KT 10SM FEW017 SCT040 27/26 A2989 RMK AO2
RAB06E39 SLP112 P0001 T02720256





000
SAGM31 PGUM 220954
MTRGUM
METAR PGUM 220954Z 09011KT 10SM FEW018 SCT040 28/26 A2988 RMK AO2
RAB09E50 SLP109 P0007 T02780256




000
SAGM31 PGUM 220954
MTRGUM
METAR PGUM 220954Z 09011KT 10SM FEW018 SCT040 28/26 A2988 RMK AO2
RAB09E50 SLP109 P0007 T02780256




000
SAGM31 PGUM 220954
MTRGUM
METAR PGUM 220954Z 09011KT 10SM FEW018 SCT040 28/26 A2988 RMK AO2
RAB09E50 SLP109 P0007 T02780256





000
SAGM31 PGUM 220954
MTRGUM
METAR PGUM 220954Z 09011KT 10SM FEW018 SCT040 28/26 A2988 RMK AO2
RAB09E50 SLP109 P0007 T02780256





000
SAGM31 PGUM 220944
MTRGUM
SPECI PGUM 220944Z 10010KT 8SM -RA SCT019 SCT029 BKN040 28/26 A2987
RMK AO2 RAB09 P0007




000
SAGM31 PGUM 220944
MTRGUM
SPECI PGUM 220944Z 10010KT 8SM -RA SCT019 SCT029 BKN040 28/26 A2987
RMK AO2 RAB09 P0007





000
SAGM31 PGUM 220918
MTRGUM
SPECI PGUM 220918Z 08010G20KT 5SM -RA FEW016 BKN027 BKN047 27/25
A2987 RMK AO2 RAB09 P0006




000
SAGM31 PGUM 220918
MTRGUM
SPECI PGUM 220918Z 08010G20KT 5SM -RA FEW016 BKN027 BKN047 27/25
A2987 RMK AO2 RAB09 P0006





000
SAGM31 PGUM 220854
MTRGUM
METAR PGUM 220854Z 08014G19KT 10SM FEW016 SCT034 BKN043 29/26 A2986
RMK AO2 SLP102 60000 T02890256 51013




000
SAGM31 PGUM 220854
MTRGUM
METAR PGUM 220854Z 08014G19KT 10SM FEW016 SCT034 BKN043 29/26 A2986
RMK AO2 SLP102 60000 T02890256 51013





000
SAGM31 PGUM 220755
MTRGUM
METAR PGUM 220754Z 09006KT 10SM FEW018 SCT040 SCT070 28/26 A2985 RMK
AO2 RAB16E28 SLP098 CB DSNT W AND NW MOV W P0000 T02830256




000
SAGM31 PGUM 220755
MTRGUM
METAR PGUM 220754Z 09006KT 10SM FEW018 SCT040 SCT070 28/26 A2985 RMK
AO2 RAB16E28 SLP098 CB DSNT W AND NW MOV W P0000 T02830256





000
SAGM31 PGUM 220655
MTRGUM
METAR PGUM 220654Z 07012KT 10SM FEW016 SCT024 SCT040 29/25 A2983 RMK
AO2 RAB14E22 SLP094 P0000 T02890250




000
SAGM31 PGUM 220655
MTRGUM
METAR PGUM 220654Z 07012KT 10SM FEW016 SCT024 SCT040 29/25 A2983 RMK
AO2 RAB14E22 SLP094 P0000 T02890250





000
SAGM31 PGUM 220623
MTRGUM
SPECI PGUM 220622Z 08010G19KT 10SM FEW022 SCT032 BKN043 29/24 A2982
RMK AO2 RAB14E22 P0000





000
SAGM31 PGUM 220623
MTRGUM
SPECI PGUM 220622Z 08010G19KT 10SM FEW022 SCT032 BKN043 29/24 A2982
RMK AO2 RAB14E22 P0000




000
SAGM31 PGUM 220555
MTRGUM
METAR PGUM 220554Z 08017G21KT 10SM SCT019 BKN026 BKN045 30/25 A2982
RMK AO2 SLP089 T03000250 10322 20294 55004




000
SAGM31 PGUM 220555
MTRGUM
METAR PGUM 220554Z 08017G21KT 10SM SCT019 BKN026 BKN045 30/25 A2982
RMK AO2 SLP089 T03000250 10322 20294 55004





000
SAGM31 PGUM 220551
MTRGUM
SPECI PGUM 220550Z 09016G21KT 10SM BKN019 BKN026 31/25 A2982 RMK AO2




000
SAGM31 PGUM 220551
MTRGUM
SPECI PGUM 220550Z 09016G21KT 10SM BKN019 BKN026 31/25 A2982 RMK AO2





000
SAGM31 PGUM 220454
MTRGUM
METAR PGUM 220454Z 08012KT 10SM FEW021 SCT045 31/25 A2981 RMK AO2
SLP085 T03110250




000
SAGM31 PGUM 220454
MTRGUM
METAR PGUM 220454Z 08012KT 10SM FEW021 SCT045 31/25 A2981 RMK AO2
SLP085 T03110250





000
SAGM31 PGUM 220442
MTRGUM
SPECI PGUM 220442Z 08011KT 10SM SCT021 SCT027 BKN045 32/25 A2981 RMK
AO2





000
SAGM31 PGUM 220442
MTRGUM
SPECI PGUM 220442Z 08011KT 10SM SCT021 SCT027 BKN045 32/25 A2981 RMK
AO2




000
SAGM31 PGUM 220426
MTRGUM
SPECI PGUM 220426Z 06015G21KT 10SM SCT021 BKN028 32/25 A2982 RMK AO2




000
SAGM31 PGUM 220426
MTRGUM
SPECI PGUM 220426Z 06015G21KT 10SM SCT021 BKN028 32/25 A2982 RMK AO2





000
SAGM31 PGUM 220354
MTRGUM
METAR PGUM 220354Z 09015G18KT 10SM SCT023 SCT031 32/25 A2983 RMK AO2
SLP092 T03170250




000
SAGM31 PGUM 220354
MTRGUM
METAR PGUM 220354Z 09015G18KT 10SM SCT023 SCT031 32/25 A2983 RMK AO2
SLP092 T03170250





000
SAGM31 PGUM 220310
MTRGUM
SPECI PGUM 220310Z 09012G20KT 10SM FEW021 SCT030 32/24 A2984 RMK AO2




000
SAGM31 PGUM 220310
MTRGUM
SPECI PGUM 220310Z 09012G20KT 10SM FEW021 SCT030 32/24 A2984 RMK AO2





000
SAGM31 PGUM 220254
MTRGUM
METAR PGUM 220254Z 09016G21KT 10SM SCT021 BKN029 31/24 A2985 RMK AO2
SLP099 T03110244 57026





000
SAGM31 PGUM 220254
MTRGUM
METAR PGUM 220254Z 09016G21KT 10SM SCT021 BKN029 31/24 A2985 RMK AO2
SLP099 T03110244 57026




000
SAGM31 PGUM 220221
MTRGUM
SPECI PGUM 220220Z 09014G22KT 10SM BKN021 BKN028 32/25 A2986 RMK AO2




000
SAGM31 PGUM 220221
MTRGUM
SPECI PGUM 220220Z 09014G22KT 10SM BKN021 BKN028 32/25 A2986 RMK AO2





000
SAGM31 PGUM 220155
MTRGUM
METAR PGUM 220154Z 08013G21KT 10SM FEW021 32/25 A2987 RMK AO2 SLP107
T03170250




000
SAGM31 PGUM 220155
MTRGUM
METAR PGUM 220154Z 08013G21KT 10SM FEW021 32/25 A2987 RMK AO2 SLP107
T03170250





000
SAGM31 PGUM 220109
MTRGUM
SPECI PGUM 220108Z 08018KT 10SM FEW019 SCT025 31/25 A2989 RMK AO2





000
SAGM31 PGUM 220109
MTRGUM
SPECI PGUM 220108Z 08018KT 10SM FEW019 SCT025 31/25 A2989 RMK AO2




000
SAGM31 PGUM 220055
MTRGUM
METAR PGUM 220054Z 08014G21KT 10SM SCT019 BKN025 31/26 A2990 RMK AO2
SLP116 T03110256




000
SAGM31 PGUM 220055
MTRGUM
METAR PGUM 220054Z 08014G21KT 10SM SCT019 BKN025 31/26 A2990 RMK AO2
SLP116 T03110256





000
SAGM31 PGUM 212358
MTRGUM
METAR PGUM 212354Z COR 08015G22KT 10SM FEW019 SCT041 30/25 A2992 RMK
AO2 SLP125 T03000250 10300 20261 51011




000
SAGM31 PGUM 212358
MTRGUM
METAR PGUM 212354Z COR 08015G22KT 10SM FEW019 SCT041 30/25 A2992 RMK
AO2 SLP125 T03000250 10300 20261 51011





000
SAGM31 PGUM 212355
MTRGUM
METAR PGUM 212354Z 08015G22KT 10SM FEW019 SCT041 BKN085 30/25 A2992
RMK AO2 SLP125 T03000250 10300 20261 51011




000
SAGM31 PGUM 212355
MTRGUM
METAR PGUM 212354Z 08015G22KT 10SM FEW019 SCT041 BKN085 30/25 A2992
RMK AO2 SLP125 T03000250 10300 20261 51011





000
SAGM31 PGUM 212254
MTRGUM
METAR PGUM 212254Z 07014G19KT 10SM SCT019 SCT025 29/26 A2992 RMK AO2
SLP124 T02940256





000
SAGM31 PGUM 212254
MTRGUM
METAR PGUM 212254Z 07014G19KT 10SM SCT019 SCT025 29/26 A2992 RMK AO2
SLP124 T02940256




000
SAGM31 PGUM 212154
MTRGUM
METAR PGUM 212154Z 08010KT 10SM FEW050 28/25 A2991 RMK AO2 SLP120
T02830250





000
SAGM31 PGUM 212154
MTRGUM
METAR PGUM 212154Z 08010KT 10SM FEW050 28/25 A2991 RMK AO2 SLP120
T02830250




000
SAGM31 PGUM 212055
MTRGUM
METAR PGUM 212054Z 07010KT 10SM FEW023 BKN036 27/25 A2989 RMK AO2
SLP114 T02720250 53004





000
SAGM31 PGUM 212055
MTRGUM
METAR PGUM 212054Z 07010KT 10SM FEW023 BKN036 27/25 A2989 RMK AO2
SLP114 T02720250 53004




000
SAGM31 PGUM 211955
MTRGUM
METAR PGUM 211954Z 08007KT 10SM CLR 26/25 A2987 RMK AO2 SLP106
T02610250





000
SAGM31 PGUM 211955
MTRGUM
METAR PGUM 211954Z 08007KT 10SM CLR 26/25 A2987 RMK AO2 SLP106
T02610250




000
SAGM31 PGUM 211855
MTRGUM
METAR PGUM 211854Z 07009KT 10SM CLR 27/25 A2987 RMK AO2 SLP107
T02720250




000
SAGM31 PGUM 211855
MTRGUM
METAR PGUM 211854Z 07009KT 10SM CLR 27/25 A2987 RMK AO2 SLP107
T02720250





000
SAGM31 PGUM 211755
MTRGUM
METAR PGUM 211754Z 12003KT 10SM SCT020 BKN038 BKN085 27/25 A2988 RMK
AO2 RAE20 SLP110 P0000 60052 T02670250 10267 20250 56014




000
SAGM31 PGUM 211755
MTRGUM
METAR PGUM 211754Z 12003KT 10SM SCT020 BKN038 BKN085 27/25 A2988 RMK
AO2 RAE20 SLP110 P0000 60052 T02670250 10267 20250 56014





000
SAGM31 PGUM 211655
MTRGUM
METAR PGUM 211654Z 08005KT 10SM -RA SCT040 SCT075 BKN100 26/24 A2989
RMK AO2 PK WND 09027/1616 RAB17 SLP113 P0036 T02560244




000
SAGM31 PGUM 211655
MTRGUM
METAR PGUM 211654Z 08005KT 10SM -RA SCT040 SCT075 BKN100 26/24 A2989
RMK AO2 PK WND 09027/1616 RAB17 SLP113 P0036 T02560244





000
SAGM31 PGUM 211636
MTRGUM
SPECI PGUM 211636Z 10007G18KT 3SM +RA BR BKN032 25/24 A2990 RMK AO2
PK WND 09027/1616 RAB17 P0033




000
SAGM31 PGUM 211636
MTRGUM
SPECI PGUM 211636Z 10007G18KT 3SM +RA BR BKN032 25/24 A2990 RMK AO2
PK WND 09027/1616 RAB17 P0033





000
SAGM31 PGUM 211629
MTRGUM
SPECI PGUM 211629Z 07013G20KT 2SM +RA BR BKN023 25/24 A2990 RMK AO2
PK WND 09027/1616 RAB17 P0026





000
SAGM31 PGUM 211629
MTRGUM
SPECI PGUM 211629Z 07013G20KT 2SM +RA BR BKN023 25/24 A2990 RMK AO2
PK WND 09027/1616 RAB17 P0026




000
SAGM31 PGUM 211622
MTRGUM
SPECI PGUM 211621Z 09012G27KT 1 3/4SM +RA BR SCT014 25/24 A2991 RMK
AO2 PK WND 09027/1616 RAB17 P0009




000
SAGM31 PGUM 211622
MTRGUM
SPECI PGUM 211621Z 09012G27KT 1 3/4SM +RA BR SCT014 25/24 A2991 RMK
AO2 PK WND 09027/1616 RAB17 P0009





000
SAGM31 PGUM 211554
MTRGUM
METAR PGUM 211554Z 05009KT 10SM CLR 26/24 A2989 RMK AO2 SLP114
T02560244




000
SAGM31 PGUM 211554
MTRGUM
METAR PGUM 211554Z 05009KT 10SM CLR 26/24 A2989 RMK AO2 SLP114
T02560244





000
SAGM31 PGUM 211554
MTRGUM
METAR PGUM 211554Z 05009KT 10SM CLR 26/24 A2989 RMK AO2 SLP114
T02560244




000
SAGM31 PGUM 211554
MTRGUM
METAR PGUM 211554Z 05009KT 10SM CLR 26/24 A2989 RMK AO2 SLP114
T02560244





000
SAGM31 PGUM 211455
MTRGUM
METAR PGUM 211454Z 06014KT 10SM FEW037 SCT070 SCT110 26/24 A2992 RMK
AO2 PK WND 06026/1434 RAB03E50 SLP124 P0014 60016 T02560244 56004




000
SAGM31 PGUM 211455
MTRGUM
METAR PGUM 211454Z 06014KT 10SM FEW037 SCT070 SCT110 26/24 A2992 RMK
AO2 PK WND 06026/1434 RAB03E50 SLP124 P0014 60016 T02560244 56004





000
SAGM31 PGUM 211355
MTRGUM
METAR PGUM 211354Z 05006KT 10SM FEW020 SCT040 26/24 A2992 RMK AO2
SLP125 T02560244 403220256




000
SAGM31 PGUM 211355
MTRGUM
METAR PGUM 211354Z 05006KT 10SM FEW020 SCT040 26/24 A2992 RMK AO2
SLP125 T02560244 403220256





000
SAGM31 PGUM 211255
MTRGUM
METAR PGUM 211254Z 05006KT 10SM FEW020 SCT045 26/24 A2993 RMK AO2
RAE32 SLP126 P0002 T02560244




000
SAGM31 PGUM 211255
MTRGUM
METAR PGUM 211254Z 05006KT 10SM FEW020 SCT045 26/24 A2993 RMK AO2
RAE32 SLP126 P0002 T02560244





000
SAGM31 PGUM 211206
MTRGUM
SPECI PGUM 211205Z 04007KT 7SM -RA FEW020 BKN080 BKN100 26/24 A2993
RMK AO2 P0002




000
SAGM31 PGUM 211159
MTRGUM
METAR PGUM 211154Z COR 07010G17KT 3SM RA BR SCT016 BKN020 BKN036
26/24 A2993 RMK AO2 RAB1056E20B45 SLP128 P0011 60015 700222T02610244
10300 20261 51012




000
SAGM31 PGUM 211159
MTRGUM
METAR PGUM 211154Z COR 07010G17KT 3SM RA BR SCT016 BKN020 BKN036
26/24 A2993 RMK AO2 RAB1056E20B45 SLP128 P0011 60015 700222T02610244
10300 20261 51012





000
SAGM31 PGUM 211154
MTRGUM
METAR PGUM 211154Z 07010G17KT 3SM RA BR SCT016 BKN020 BKN036 26/24
A2993 RMK AO2 RAB1056E20B45 SLP128 P0011 60012 70024 T02610244 10300
20261 51012




000
SAGM31 PGUM 211154
MTRGUM
METAR PGUM 211154Z 07010G17KT 3SM RA BR SCT016 BKN020 BKN036 26/24
A2993 RMK AO2 RAB1056E20B45 SLP128 P0011 60012 70024 T02610244 10300
20261 51012





000
SAGM31 PGUM 211145
MTRGUM
SPECI PGUM 211145Z 05015G18KT 4SM RA BR SCT016 BKN020 BKN036 26/24
A2994 RMK AO2 RAB1056E20B45 P0006




000
SAGM31 PGUM 211145
MTRGUM
SPECI PGUM 211145Z 05015G18KT 4SM RA BR SCT016 BKN020 BKN036 26/24
A2994 RMK AO2 RAB1056E20B45 P0006





000
SAGM31 PGUM 211113
MTRGUM
SPECI PGUM 211113Z 06010KT 10SM -RA FEW023 BKN036 BKN065 26/24 A2992
RMK AO2 RAB1056 P0006





000
SAGM31 PGUM 211113
MTRGUM
SPECI PGUM 211113Z 06010KT 10SM -RA FEW023 BKN036 BKN065 26/24 A2992
RMK AO2 RAB1056 P0006




000
SAGM31 PGUM 211104
MTRGUM
SPECI PGUM 211103Z 07013G21KT 4SM RA BR FEW012 BKN018 BKN030 26/24
A2993 RMK AO2 RAB1056 P0004





000
SAGM31 PGUM 211104
MTRGUM
SPECI PGUM 211103Z 07013G21KT 4SM RA BR FEW012 BKN018 BKN030 26/24
A2993 RMK AO2 RAB1056 P0004




000
SAGM31 PGUM 211059
MTRGUM
SPECI PGUM 211059Z 06017G21KT 2 1/2SM +RA BR FEW012 BKN018 BKN030
27/24 A2993 RMK AO2 RAB56 P0000




000
SAGM31 PGUM 211059
MTRGUM
SPECI PGUM 211059Z 06017G21KT 2 1/2SM +RA BR FEW012 BKN018 BKN030
27/24 A2993 RMK AO2 RAB56 P0000





000
SAGM31 PGUM 211054
MTRGUM
METAR PGUM 211054Z 06012G20KT 10SM FEW018 SCT060 27/25 A2993 RMK AO2
SLP126 T02720250




000
SAGM31 PGUM 211054
MTRGUM
METAR PGUM 211054Z 06012G20KT 10SM FEW018 SCT060 27/25 A2993 RMK AO2
SLP126 T02720250





000
SAGM31 PGUM 210954
MTRGUM
METAR PGUM 210954Z 06008KT 10SM FEW020 27/25 A2991 RMK AO2 RAE06
SLP120 P0001 T02670250




000
SAGM31 PGUM 210954
MTRGUM
METAR PGUM 210954Z 06008KT 10SM FEW020 27/25 A2991 RMK AO2 RAE06
SLP120 P0001 T02670250





000
SAGM31 PGUM 210854
MTRGUM
METAR PGUM 210854Z 05014G20KT 5SM -RA BR SCT018 SCT037 BKN048 27/25
A2990 RMK AO2 RAB29 SLP116 P0000 60000 T02720250 51014





000
SAGM31 PGUM 210854
MTRGUM
METAR PGUM 210854Z 05014G20KT 5SM -RA BR SCT018 SCT037 BKN048 27/25
A2990 RMK AO2 RAB29 SLP116 P0000 60000 T02720250 51014




000
SAGM31 PGUM 210755
MTRGUM
METAR PGUM 210754Z 05007KT 10SM FEW021 SCT050 28/24 A2988 RMK AO2
SLP111 T02780244





000
SAGM31 PGUM 210755
MTRGUM
METAR PGUM 210754Z 05007KT 10SM FEW021 SCT050 28/24 A2988 RMK AO2
SLP111 T02780244




000
SAGM31 PGUM 210655
MTRGUM
METAR PGUM 210654Z 06009KT 10SM FEW020 SCT050 29/24 A2987 RMK AO2
SLP107 CB DSNT W MOV W T02890239




000
SAGM31 PGUM 210655
MTRGUM
METAR PGUM 210654Z 06009KT 10SM FEW020 SCT050 29/24 A2987 RMK AO2
SLP107 CB DSNT W MOV W T02890239





000
SAGM31 PGUM 210555
MTRGUM
METAR PGUM 210554Z 06010KT 10SM FEW020 BKN065 29/24 A2986 RMK AO2
SLP101 60003 T02940244 10322 20272 56006





000
SAGM31 PGUM 210555
MTRGUM
METAR PGUM 210554Z 06010KT 10SM FEW020 BKN065 29/24 A2986 RMK AO2
SLP101 60003 T02940244 10322 20272 56006




000
SAGM31 PGUM 210454
MTRGUM
METAR PGUM 210454Z 07009KT 10SM OVC050 28/24 A2986 RMK AO2 RAB20E38
SLP102 P0000 T02830244





000
SAGM31 PGUM 210454
MTRGUM
METAR PGUM 210454Z 07009KT 10SM OVC050 28/24 A2986 RMK AO2 RAB20E38
SLP102 P0000 T02830244




    US Dept of Commerce
    National Oceanic and Atmospheric Administration
    National Weather Service
    1325 East West Highway
    Silver Spring, MD 20910
    Page Author: NWS Internet Services Team
Disclaimer
Information Quality
Credits
Glossary
Privacy Policy
Freedom of Information Act (FOIA)
About Us
Career Opportunities